Погода в Борисоглебске

Погода в Борисоглебске : погода сейчас, прогноз погоды и архив. Всё, что Вы хотите узнать о погоде в Борисоглебске!

Хотите узнать прогноз погоды в Борисоглебске? Тогда Вам сюда: Погода в Борисоглебске

Поиск расширенной информации на нашем сайте:

Другие новости

Новости СМИ2

Главная страница сайта

Новости сайта

02.10.2013

Напоминаем, что на нашем новом сайте вы можете получить высокодетализированные прогнозы погоды по пунктам России, СНГ и мира (включающие важные для авиации метеовеличины, такие как направление и скорость ветра, видимость, явления погоды, количество и форма облачности, нижняя и верхняя граница облачности), а также ознакомиться с разнообразными материалами по авиационной метеорологии и подборкой полезных ссылок на эту тему.

Сайт Метеоцентр.Азия посвящён разработке технологий оптимизации авиаметеорологического обслуживания, включая проектирование и перспективное создание нескольких автоматизированных авиаметеорологических систем:
- система выпуска высокодетальных прогностических карт явлений погоды для нижнего воздушного пространства по России и ближнему зарубежью;
- система верификации прогнозов TAF (выпускаемых синоптиками официальных АМСГ РФ и ближнего зарубежья) и AUTOTAF (выпускаемых сайтом Метеоцентр.Азия) - выявление ошибок, онлайн-сопоставление с фактической погодой METAR, автоматическое внесение коррективов в прогнозы при резком отклонении фактической погоды от прогноза, подсчёт оправдываемости прогнозов по элементам и в целом;
- система обработки, анализа и отображения авиаметеорологической информации для применения провайдерами метеорологической информации.


Погода в Борисоглебске - сегодня

Время (UTC), дата Ветер
(°,м/с) 
Видим.   Явления Облачность Т
(°С)
Тd
(°С)
f(%) Тe
(°С)
Pmin
(гПа)
dP
(гПа)
Po
(мм)
O2
(г/м3)
Тmin Tmax R s Состояние
почвы
18 24.06.17 250 (З) 10 км    3/0 средняя 
[Ac trans]
+15.4 +12.8 84 +22  1006.7  1.1  746  282           
21 24.06.17 190 (Ю) 4000 м  дымка  ясно 
+11.1 +9.7 91 +13  1008.5  1.6  747  287           
00 25.06.17 200 (Ю) 4000 м  дымка  3/0 верхняя 
[Ci fib]
+10.2 +9 92 +11  1009.3  0.7  747  289           
03 25.06.17 190 (Ю) 4000 м  дымка  3/0 верхняя 
[Ci fib]
+11.7 +10.2 91 +14  1010  0.8  748  287  +9.4         
06 25.06.17 230 (ЮЗ) 20000 м    ясно 
+20.3 +12.5 61 +25  1010.6  749  278           
09 25.06.17 240 (ЮЗ) 20000 м    8/8 1000 м 
[Cu hum]
+21.7 +10.4 49 +23  1010.9  0.3  749  278           
12 25.06.17 290 (З) 20000 м    8/8 1000 м 
[Cu hum]
+21.9 +9.7 46 +23  1011.3  0.4  749  278           
15 25.06.17 230 (ЮЗ) 20000 м    8/0 средняя 
[Ac trans]
+22.1 +12.8 56 +27  1011.1  -0.2  749  277    +22.3       
18 25.06.17 230 (ЮЗ) 10 км    8/0 средняя 
[Ac trans]
+19.5 +12.6 64 +26  1012.1  0.9  750  280           
21 25.06.17 220 (ЮЗ) 10 км    8/0 средняя 
[Ac trans]
+17.4 +12.9 75 +24  1012.5  0.3  750  282           
00 26.06.17 210 (ЮЗ) 4000 м  дымка  ясно 
+14 +12.5 91 +19  1013  0.3  750  285           
03 26.06.17 230 (ЮЗ) 4000 м  дымка  4/0 средняя 
[Ac trans]
+15 +13.4 90 +22  1013.3  0.4  751  284  +13.7         
06 26.06.17 230 (ЮЗ) 10 км    4/0 средняя 
[Ac trans]
+21.7 +15.9 70 +32  1013.3  0.3  751  277           
09 26.06.17 260 (З) 20000 м    6/4 1000 м верхняя 
[Cu hum|Ci fib]
+26.2 +15.9 53 +36  1012.7  -0.4  750  273           
12 26.06.17 250 (З) 20000 м    6/3 1000 м верхняя 
[Cu hum|Ci fib]
+27.6 +15.3 47 +37  1012.3  -0.4  750  271           
15 26.06.17 220 (ЮЗ) 20000 м    3/0 верхняя 
[Ci fib]
+27.2 +15.2 48 +36  1011.2  -1  749  271    +28       
18 26.06.17 190 (Ю) 10 км    6/0 верхняя 
[Ci fib]
+23.2 +15.9 64 +34  1010.8  -0.6  749  275           
21 26.06.17 210 (ЮЗ) 10 км    3/0 верхняя 
[Ci fib]
+21.4 +15.9 71 +32  1010.7  -0.2  749  276           
00 27.06.17 210 (ЮЗ) 10 км    6/0 верхняя 
[Ci fib]
+19.8 +15.1 74 +30  1009.8  -0.9  748  278           
03 27.06.17 200 (Ю) 10 км    9/9 600 м 
[Sc]
+20.1 +16.1 78 +31  1010.1  0.3  748  277  +19.8         
06 27.06.17 210 (ЮЗ) 10 км  {ливн. осадки}  9/0 средняя 
[Ac trans]
+22 +18.1 79 +37  1010  748  275           
09 27.06.17 230 (ЮЗ) 20000 м    8/0 средняя 
[Ac trans]
+28 +16.9 51 +40  1009.7  748  270           
12 27.06.17 240 (ЮЗ) 20000 м    4/4 1000 м 
[Cu hum]
+29 +18.4 53 +44  1009.7  748  268           
15 27.06.17 310 (СЗ) 20000 м    6/0 средняя 
[Ac trans]
+26.8 +16.9 55 +39  1009.1  -0.7  748  271    +29.3     
18 27.06.17 310 (СЗ) 10 км    6/0 верхняя 
[Ci fib]
+24 +17.6 67 +38  1009.8  0.6  748  273           
Время (UTC), дата Ветер
(°,м/с) 
Видим.   Явления Облачность Т
(°С)
Тd
(°С)
f(%) Тe
(°С)
Pmin
(гПа)
dP
(гПа)
Po
(мм)
O2
(г/м3)
Тmin Tmax R s Состояние
почвы

Для получения пояснительной информации подведите курсор к названию столбца.

ПОГОДА в Борисоглебске - архив

Всё, что Вы хотите узнать о погоде в Борисоглебске - удобно и подробно!

Выберите нужную дату (начиная с 1 января 2015* года) и нажмите кнопку "Найти".
Будут отображены архивные сводки погоды по пункту Борисоглебск, начиная с указанной даты.


Отображать данные в формате CSV (для использования в таблицах Excel)


Внимание! Наш архив погоды предназначен исключительно для личного некоммерческого использования в познавательных целях. Если Вам необходимы официальные справки о состоянии погоды (для производственных, юридических, коммерческих и т.п. целей), обращайтесь в органы Росгидромета.

*Примечание: данная дата относится к архиву по метеостанциям СССР (Россия, СНГ, Балтия).
Архив по метеостанциям Зарубежной Европы и Азии (кроме Китая) хранится 10 дней, по другим регионам земного шара (Китай, Африка, Америка, Австралия, Океания) - 1 день.

Борисоглебск - район местоположения метеостанции


Название, широта, долгота, высота метеостанции:
Борисоглебск 51.4°ш. 42.1°д. 106 м над ур. моря [Российская Федерация]

Дополнительная информация

В oтличие oт бoльшинства пoгoдных сайтoв мы публикуем пoдрoбную метеoинфoрмацию в детальнoм прoфессиoнальнoм фoрмате.

Характеристики температуры и влажнoсти вoздуха измеряются на высoте 2 м в тени вдали oт зданий и деревьев.
Скoрoсть ветра измеряется на высoте 10 м (на урoвне рoста челoвека скoрoсть ветра ниже в 1.5-2 раза). Если метеoстанция нахoдится в гoрoде или в лесу, тo скoрoсть ветра занижена на 2-4 м/с пo сравнению с oткрытым местoм. Скoрoсть ветра над акватoриями крупных рек и oзёр, а также на вершинах хoлмoв на 2-5 м/с выше, чем в oбычных услoвиях.
Атмoсфернoе давление в разных тoчках местнoсти мoжет значительнo oтличаться oт давления на метеoстанции, в зависимoсти oт услoвий рельефа (при пoдъёме на 10 м давление пoнижается примернo на 1 мм рт.ст.).